• în România
  • Lista ţărilor
  • Pe 7 zile
  • Temperatura apei
  • Hartă satelitară
  • Meteo pe hartă
  • Widget-uri
  • user-avatar
    Intrare

    Meteo pe oră la Chichester

    Astăzi, 15 August, Miercuri

    Timp Temperatura Precipitaţii Vânt Presiune Umiditate
    00:00 +15°C° 0 mm 4 m/s 762 mmHg 93%
    01:00 +14°C° 0 mm 4 m/s 762 mmHg 94%
    02:00 +14°C° 0 mm 4 m/s 762 mmHg 94%
    03:00 +14°C° 0 mm 4 m/s 762 mmHg 95%
    04:00 +14°C° 0 mm 4 m/s 762 mmHg 94%
    05:00 +15°C° 0 mm 4 m/s 762 mmHg 94%
    06:00 +17°C° 0 mm 4 m/s 762 mmHg 92%
    07:00 +18°C° 0 mm 4 m/s 762 mmHg 88%
    08:00 +19°C° 0 mm 4 m/s 763 mmHg 85%
    09:00 +19°C° 0 mm 5 m/s 763 mmHg 82%
    10:00 +20°C° 0 mm 5 m/s 763 mmHg 78%
    11:00 +21°C° 0 mm 5 m/s 763 mmHg 74%
    12:00 +23°C° 0 mm 6 m/s 762 mmHg 70%
    13:00 +23°C° 0 mm 6 m/s 762 mmHg 69%
    14:00 +23°C° 0 mm 6 m/s 762 mmHg 68%
    15:00 +23°C° 0 mm 6 m/s 762 mmHg 67%
    16:00 +22°C° 0 mm 6 m/s 761 mmHg 70%
    17:00 +22°C° 0 mm 6 m/s 761 mmHg 72%
    18:00 +21°C° 0 mm 6 m/s 761 mmHg 75%
    19:00 +20°C° 0 mm 6 m/s 761 mmHg 80%
    20:00 +19°C° 0 mm 6 m/s 761 mmHg 86%
    21:00 +17°C° 0 mm 5 m/s 761 mmHg 91%
    22:00 +17°C° 0 mm 6 m/s 761 mmHg 93%
    23:00 +16°C° 0 mm 6 m/s 760 mmHg 94%

    Mâine, 16 August, Joi

    Timp Temperatura Precipitaţii Vânt Presiune Umiditate
    00:00 +16°C° 0 mm 6 m/s 760 mmHg 95%
    01:00 +17°C° 0 mm 6 m/s 760 mmHg 94%
    02:00 +17°C° 0 mm 6 m/s 759 mmHg 92%
    03:00 +17°C° 0 mm 7 m/s 759 mmHg 91%
    04:00 +17°C° 0,1 mm 7 m/s 758 mmHg 91%
    05:00 +18°C° 0,1 mm 7 m/s 758 mmHg 90%
    06:00 +18°C° 0,1 mm 8 m/s 758 mmHg 90%
    07:00 +18°C° 0,6 mm 7 m/s 758 mmHg 89%
    08:00 +18°C° 0,6 mm 7 m/s 758 mmHg 89%
    09:00 +17°C° 0,6 mm 6 m/s 758 mmHg 88%
    10:00 +17°C° 1,3 mm 5 m/s 758 mmHg 89%
    11:00 +16°C° 1,3 mm 5 m/s 759 mmHg 89%
    12:00 +17°C° 1,3 mm 4 m/s 759 mmHg 89%
    13:00 +17°C° 0,4 mm 4 m/s 759 mmHg 84%
    14:00 +18°C° 0,4 mm 4 m/s 759 mmHg 80%
    15:00 +18°C° 0,4 mm 4 m/s 759 mmHg 75%
    16:00 +18°C° 0 mm 4 m/s 759 mmHg 73%
    17:00 +19°C° 0 mm 4 m/s 759 mmHg 71%
    18:00 +19°C° 0 mm 4 m/s 759 mmHg 68%
    19:00 +18°C° 0 mm 4 m/s 760 mmHg 73%
    20:00 +15°C° 0 mm 4 m/s 760 mmHg 78%
    21:00 +14°C° 0 mm 3 m/s 761 mmHg 83%
    22:00 +13°C° 0 mm 3 m/s 761 mmHg 85%
    23:00 +13°C° 0 mm 3 m/s 761 mmHg 88%

    Poimâine, 17 August, Vineri

    Timp Temperatura Precipitaţii Vânt Presiune Umiditate
    00:00 +12°C° 0 mm 3 m/s 761 mmHg 90%
    01:00 +12°C° 0 mm 3 m/s 761 mmHg 91%
    02:00 +12°C° 0 mm 3 m/s 761 mmHg 92%
    03:00 +11°C° 0 mm 3 m/s 761 mmHg 93%
    04:00 +12°C° 0 mm 3 m/s 762 mmHg 93%
    05:00 +12°C° 0 mm 3 m/s 762 mmHg 92%
    06:00 +12°C° 0 mm 3 m/s 762 mmHg 91%
    07:00 +14°C° 0 mm 3 m/s 762 mmHg 82%
    08:00 +17°C° 0 mm 3 m/s 763 mmHg 74%
    09:00 +19°C° 0 mm 3 m/s 763 mmHg 65%
    10:00 +20°C° 0 mm 4 m/s 763 mmHg 60%
    11:00 +20°C° 0 mm 4 m/s 763 mmHg 56%
    12:00 +21°C° 0 mm 5 m/s 763 mmHg 52%
    13:00 +21°C° 0 mm 5 m/s 763 mmHg 53%
    14:00 +21°C° 0 mm 5 m/s 763 mmHg 54%
    15:00 +22°C° 0 mm 6 m/s 763 mmHg 55%
    16:00 +21°C° 0 mm 6 m/s 763 mmHg 58%
    17:00 +20°C° 0 mm 5 m/s 763 mmHg 61%
    18:00 +20°C° 0 mm 5 m/s 763 mmHg 64%
    19:00 +17°C° 0 mm 5 m/s 764 mmHg 70%
    20:00 +17°C° 0 mm 4 m/s 764 mmHg 75%
    21:00 +15°C° 0 mm 4 m/s 764 mmHg 80%
    22:00 +14°C° 0 mm 4 m/s 764 mmHg 83%
    23:00 +14°C° 0 mm 4 m/s 764 mmHg 85%

    18 August, Sâmbătă

    Timp Temperatura Precipitaţii Vânt Presiune Umiditate
    00:00 +14°C° 0 mm 4 m/s 764 mmHg 88%
    01:00 +14°C° 0 mm 4 m/s 764 mmHg 90%
    02:00 +14°C° 0 mm 4 m/s 764 mmHg 91%
    03:00 +14°C° 0 mm 4 m/s 764 mmHg 93%
    04:00 +14°C° 0 mm 4 m/s 764 mmHg 93%
    05:00 +14°C° 0 mm 4 m/s 764 mmHg 92%
    06:00 +15°C° 0 mm 4 m/s 764 mmHg 92%
    07:00 +16°C° 0 mm 5 m/s 764 mmHg 85%
    08:00 +19°C° 0 mm 5 m/s 764 mmHg 79%
    09:00 +20°C° 0 mm 5 m/s 764 mmHg 73%
    10:00 +21°C° 0 mm 5 m/s 764 mmHg 72%
    11:00 +21°C° 0 mm 5 m/s 764 mmHg 71%
    12:00 +21°C° 0 mm 6 m/s 764 mmHg 70%
    13:00 +21°C° 0 mm 6 m/s 764 mmHg 70%
    14:00 +21°C° 0 mm 6 m/s 764 mmHg 70%
    15:00 +21°C° 0 mm 6 m/s 764 mmHg 70%
    16:00 +21°C° 0 mm 5 m/s 764 mmHg 71%
    17:00 +21°C° 0 mm 5 m/s 764 mmHg 73%
    18:00 +21°C° 0 mm 5 m/s 764 mmHg 74%
    19:00 +20°C° 0 mm 5 m/s 764 mmHg 80%
    20:00 +19°C° 0 mm 4 m/s 764 mmHg 87%
    21:00 +18°C° 0 mm 4 m/s 765 mmHg 93%
    22:00 +17°C° 0 mm 4 m/s 765 mmHg 94%
    23:00 +17°C° 0 mm 4 m/s 765 mmHg 95%

    19 August, Duminică

    Timp Temperatura Precipitaţii Vânt Presiune Umiditate
    00:00 +17°C° 0 mm 4 m/s 764 mmHg 96%
    01:00 +17°C° 0 mm 4 m/s 764 mmHg 97%
    02:00 +17°C° 0 mm 4 m/s 764 mmHg 97%
    03:00 +17°C° 0 mm 4 m/s 764 mmHg 97%
    04:00 +18°C° 0,1 mm 4 m/s 764 mmHg 96%
    05:00 +17°C° 0,1 mm 5 m/s 764 mmHg 96%
    06:00 +19°C° 0,1 mm 5 m/s 764 mmHg 95%
    07:00 +19°C° 0,1 mm 6 m/s 764 mmHg 94%
    08:00 +19°C° 0,1 mm 6 m/s 764 mmHg 92%
    09:00 +20°C° 0,1 mm 7 m/s 764 mmHg 90%
    10:00 +20°C° 0 mm 7 m/s 764 mmHg 89%
    11:00 +20°C° 0 mm 7 m/s 763 mmHg 87%
    12:00 +21°C° 0 mm 7 m/s 763 mmHg 85%
    13:00 +21°C° 0,1 mm 7 m/s 763 mmHg 84%
    14:00 +21°C° 0,1 mm 7 m/s 763 mmHg 83%
    15:00 +22°C° 0,1 mm 7 m/s 763 mmHg 82%
    16:00 +21°C° 0 mm 7 m/s 763 mmHg 82%
    17:00 +21°C° 0 mm 6 m/s 763 mmHg 81%
    18:00 +21°C° 0 mm 6 m/s 763 mmHg 81%
    19:00 +20°C° 0 mm 6 m/s 763 mmHg 85%
    20:00 +19°C° 0 mm 5 m/s 764 mmHg 88%
    21:00 +17°C° 0 mm 5 m/s 764 mmHg 92%
    22:00 +18°C° 0 mm 4 m/s 764 mmHg 93%
    23:00 +18°C° 0 mm 4 m/s 764 mmHg 95%

    20 August, Luni

    Timp Temperatura Precipitaţii Vânt Presiune Umiditate
    00:00 +17°C° 0 mm 4 m/s 764 mmHg 96%
    01:00 +17°C° 0 mm 4 m/s 764 mmHg 96%
    02:00 +17°C° 0 mm 4 m/s 764 mmHg 96%
    03:00 +18°C° 0 mm 4 m/s 763 mmHg 96%
    04:00 +18°C° 0 mm 4 m/s 764 mmHg 95%
    05:00 +18°C° 0 mm 4 m/s 764 mmHg 94%
    06:00 +19°C° 0 mm 4 m/s 764 mmHg 94%
    07:00 +20°C° 0 mm 4 m/s 764 mmHg 88%
    08:00 +21°C° 0 mm 4 m/s 764 mmHg 82%
    09:00 +22°C° 0 mm 4 m/s 764 mmHg 77%
    10:00 +23°C° 0 mm 4 m/s 764 mmHg 73%
    11:00 +25°C° 0 mm 4 m/s 764 mmHg 68%
    12:00 +25°C° 0 mm 5 m/s 765 mmHg 64%
    13:00 +25°C° 0 mm 5 m/s 765 mmHg 64%
    14:00 +25°C° 0 mm 5 m/s 764 mmHg 64%
    15:00 +25°C° 0 mm 5 m/s 764 mmHg 64%
    16:00 +25°C° 0 mm 5 m/s 764 mmHg 67%
    17:00 +23°C° 0 mm 4 m/s 764 mmHg 70%
    18:00 +23°C° 0 mm 4 m/s 764 mmHg 73%
    19:00 +21°C° 0 mm 4 m/s 765 mmHg 77%
    20:00 +20°C° 0 mm 4 m/s 765 mmHg 82%
    21:00 +19°C° 0 mm 3 m/s 765 mmHg 86%
    22:00 +19°C° 0 mm 3 m/s 765 mmHg 88%
    23:00 +18°C° 0 mm 3 m/s 765 mmHg 89%
    Arată mai mult